Regional Weather Roundup
Issued by NWS

Home | Current Version | Previous Version | Graphics & Text | Print | Product List | Glossary On
Versions: 1 2 3 4 5 6 7 8 9 10 11 12 13 14 15 16 17 18 19 20 21 22 23 24 25 26 27 28 29 30 31 32 33 34 35 36 37 38 39 40 41 42 43 44 45 46 47 48 49 50
000
ASUS43 KIND 260759
RWRIN

WEATHER ROUNDUP FOR INDIANA
NATIONAL WEATHER SERVICE INDIANAPOLIS IN
300 AM EST FRI DEC 26 2014

NOTE: "FAIR" INDICATES FEW OR NO CLOUDS BELOW 12,000 FEET WITH NO
SIGNIFICANT WEATHER AND/OR OBSTRUCTIONS TO VISIBILITY.

* - STATION DOES NOT REPORT WEATHER SUCH AS PRECIPITATION OR FOG.

+ - STATION NOT QUALITY CONTROLLED BY THE NATIONAL WEATHER SERVICE.
    USE DATA WITH CAUTION...ESPECIALLY DEWPOINT AND RELATIVE
    HUMIDITY OBSERVATIONS.

INZ001>003-010>013-019-020-260900-
NORTHWEST INDIANA

CITY           SKY/WX    TMP DP  RH WIND       PRES   REMARKS
GARY /AIRPORT/ CLEAR     39  31  72 S7        30.04S
KNOX *+        CLEAR     35  29  80 S13       30.06F WCI  26
VALPARAISO     NOT AVBL

$$

LMZ046-743>745-260900-
SOUTHERN LAKE MICHIGAN

STATION/POSITION TIME  TEMP WIND        PRES
                       AIR  DIR/SP/G
                 (UTC) (F)  (DEG/KT/KT) (MB)
MICHIGAN CITY    0700   38  150/ 17/ 20   N/A

$$

INZ004-005-014>016-021>024-260900-
NORTH CENTRAL INDIANA

CITY           SKY/WX    TMP DP  RH WIND       PRES   REMARKS
GOSHEN         PTCLDY    35  31  85 S8        30.09S WCI  29
SOUTH BEND     MOCLDY    37  31  78 S12       30.08
WARSAW +       CLEAR     32  32 100 S3        30.11R

$$

INZ006>009-017-018-025>027-260900-
NORTHEAST INDIANA

CITY           SKY/WX    TMP DP  RH WIND       PRES   REMARKS
ANGOLA *+      CLEAR     34  30  86 S7        30.11R WCI  28
FORT WAYNE     CLEAR     32  30  92 S9        30.14R WCI  24

$$

INZ028-029-035-036-043>045-051>053-260900-
WEST CENTRAL INDIANA

CITY           SKY/WX    TMP DP  RH WIND       PRES   REMARKS
GREENCASTLE +  CLEAR     32  28  86 S6        30.13S WCI  26
LAFAYETTE      CLEAR     34  31  88 S6        30.10S WCI  29
TERRE HAUTE    CLEAR     36  31  82 S9        30.13S

$$

INZ030>032-037>040-046>048-054>057-064-065-260900-
CENTRAL INDIANA

CITY           SKY/WX    TMP DP  RH WIND       PRES   REMARKS
CP ATTERBURY + CLEAR     30  28  93 MISG      30.18R
INDIANAPOLIS   CLEAR     30  28  92 S7        30.14R WCI  23
-EAGLE CREEK   CLEAR     32  29  88 SE5       30.14R WCI  27
KOKOMO *+      CLEAR     34  30  86 S12       30.12S WCI  25
MT COMFORT *+  CLEAR     34  34 100 S8        30.16R WCI  27
SHELBYVILLE    CLEAR     35  30  82 S9        30.16R WCI  28

$$

INZ033-034-041-042-049-050-058-059-260900-
EAST CENTRAL INDIANA

CITY           SKY/WX    TMP DP  RH WIND       PRES   REMARKS
MUNCIE         CLEAR     35  30  82 S8        30.16R WCI  29

$$

INZ060-061-067>069-081>083-085>088-260900-
SOUTHWEST INDIANA

CITY           SKY/WX    TMP DP  RH WIND       PRES   REMARKS
EVANSVILLE     CLEAR     40  33  76 S7        30.18R
HUNTINGBURG *+ PTCLDY    37  30  75 S9        30.19R

$$

INZ062-063-066-070>080-084-089>092-260900-
SOUTH CENTRAL AND SOUTHEAST INDIANA

CITY           SKY/WX    TMP DP  RH WIND       PRES   REMARKS
BLOOMINGTON    CLEAR     32  30  92 S7        30.15R WCI  26
SEYMOUR +      CLEAR     36  32  87 S6        30.19

$$




USA.gov is the U.S. government's official web portal to all federal, state and local government web resources and services.